SCP
-0 0 0 0 0 -0 0 0 0 0 0 0 0 0 0 0 1 0 0 0 0 0 0 1 0 0 0 0 0 0 0 0 0 0 0 0 0 0 0 0 0 0 0 0
-0 -0 -0 0 0 0 0 0 0 -0 0 0 0 0 0 0 0 0 0 0 0 0 0 0 0 0 0 0 1 0 0 0 0 0 0 1 1 0 0 0 0 0 0 0
0 -0 0 0 -0 0 0 -0 0 -0 0 0 0 0 0 0 1 0 1 0 0 0 0 1 0 0 0 0 0 1 1 1 1 1 1 1 0 0 0 0 0 0 0 0
0 -0 0 0 -0 0 0 0 -0 0 0 0 0 0 0 0 0 1 0 1 0 1 1 1 1 1 1 1 0 1 1 2 1 1 1 1 0 0 0 0 0 0 0 0
0 0 0 0 0 -0 0 0 0 0 0 0 0 0 0 -0 0 -0 0 0 0 1 1 1 1 0 1 1 0 1 1 0 0 1 0 0 0 0 0 0 1 1 1 0
0 0 0 0 0 0 0 0 0 -0 0 0 0 0 0 0 0 0 0 0 0 0 1 1 1 1 1 1 0 -0 1 1 0 0 0 1 0 0 0 0 0 0 1 0
-0 -0 0 0 0 0 0 0 -0 -0 0 0 0 -0 0 0 0 0 0 0 0 1 1 1 1 0 2 1 1 0 0 1 0 0 0 0 1 1 1 1 1 1 0 0
-0 0 -0 0 -0 0 0 0 0 0 0 0 0 0 0 0 0 0 0 0 0 1 1 1 1 1 0 1 0 0 1 0 0 0 1 1 1 1 1 2 2 2 1 0
0 -0 0 -0 -0 0 0 0 -0 0 0 -0 0 0 0 0 0 0 0 0 0 0 0 0 1 0 0 0 0 0 0 0 0 -0 1 1 1 1 1 1 1 0 1 0
-0 -0 0 -0 0 0 0 0 -0 -0 0 -0 0 0 0 0 0 0 0 0 0 0 0 1 1 1 1 0 0 0 0 0 0 0 0 0 0 1 1 1 1 0 0 0
0 -0 0 0 0 0 0 0 0 0 0 0 0 0 0 0 0 0 0 0 0 0 0 0 0 0 0 0 0 0 0 0 0 0 0 0 0 0 0 0 0 0 0 0
0 0 -0 0 0 0 0 0 0 0 0 0 0 0 0 0 0 0 0 0 0 0 0 0 0 0 0 0 0 0 0 0 0 0 0 0 0 0 0 0 0 0 0 0
0 0 -0 0 0 0 0 -0 0 0 0 0 0 0 0 0 0 0 0 0 0 0 0 0 0 0 0 0 0 0 0 0 0 0 0 0 0 0 0 0 0 0 0 0
0 0 0 0 0 0 0 0 0 0 0 0 0 0 0 0 0 0 0 0 0 0 0 0 0 0 0 0 0 0 0 0 0 0 0 0 0 0 0 0 0 0 0 0
0 0 0 0 -0 0 0 0 0 0 0 0 0 0 0 0 0 0 0 0 0 0 0 0 0 0 0 0 0 0 0 0 0 0 0 0 0 0 0 0 0 0 0 0
0 0 0 -0 0 0 0 0 0 0 0 0 0 0 0 0 0 0 0 0 0 0 0 0 0 0 0 0 0 0 0 0 0 0 0 0 0 0 0 0 0 0 0 0
0 0 0 -0 0 0 0 0 0 0 0 0 0 0 0 0 0 0 0 0 0 0 0 0 0 0 0 0 0 0 0 0 0 0 0 0 0 0 0 0 0 0 0 0
0 0 -0 0 0 0 0 0 0 0 0 0 0 0 0 0 0 0 0 0 0 0 0 0 0 0 0 0 0 0 0 0 0 0 0 0 0 0 0 0 0 0 -0 0
0 0 0 0 0 0 0 0 0 0 0 0 0 0 0 0 0 0 0 0 0 0 0 0 0 0 0 0 0 0 0 0 0 0 0 0 0 0 0 0 0 0 -0 -0
0 -0 0 0 0 0 0 0 0 0 0 0 0 0 0 0 0 0 0 0 0 0 0 0 0 0 0 0 0 0 0 0 0 0 0 0 0 0 0 0 0 0 0 0
-0 0 0 0 0 0 0 0 0 0 0 0 0 0 0 0 0 0 0 0 0 0 0 0 0 0 0 0 0 0 0 0 0 0 0 0 0 0 0 0 0 0 0 0
0 0 0 0 0 0 0 0 0 0 0 0 0 0 0 0 0 0 0 0 0 0 0 0 0 0 0 0 0 0 0 0 0 0 0 0 0 0 0 0 0 0 0 0
0 0 0 0 0 0 0 0 0 0 0 0 0 0 0 0 0 0 0 0 0 0 0 0 0 0 0 0 0 0 0 0 0 0 0 0 0 0 0 0 0 0 0 0
0 0 0 0 0 0 0 0 0 0 0 0 0 0 0 0 0 0 0 0 0 0 0 0 0 0 0 0 0 0 0 0 0 0 0 0 0 0 0 0 0 0 0 0
0 0 0 0 0 0 0 0 0 0 0 0 0 0 0 0 0 0 0 0 0 0 0 0 0 0 0 0 0 0 0 0 0 0 0 0 0 0 0 0 0 0 0 0
0 0 0 0 0 0 0 0 0 0 0 0 0 0 0 0 0 0 0 0 0 0 0 0 0 0 0 0 0 0 0 0 0 0 0 0 0 0 0 0 0 0 0 0
Wind_Speed_500mb
33 24 29 16 32 26 18 21 26 20 7 8 26 30 24 14 25 20 27 31 33 37 37 38 38 39 38 38 37 33 29 29 25 21 16 19 23 24 22 25 19 21 26 30
29 26 36 3 17 18 20 35 23 27 15 15 30 36 29 29 19 27 27 29 30 32 35 36 36 39 40 37 30 29 28 29 27 22 18 18 16 21 27 28 24 20 15 27
17 44 8 36 35 29 23 30 26 35 28 24 35 29 42 16 15 14 15 23 26 28 37 40 40 38 39 41 31 40 30 36 29 22 18 19 21 22 20 11 14 10 20 27
36 52 35 23 34 27 33 15 32 33 31 27 23 28 41 36 27 46 24 10 18 26 28 38 41 36 41 36 29 32 42 41 23 21 15 15 22 19 19 28 26 21 30 29
33 37 47 36 29 48 33 34 26 34 36 48 24 9 11 50 16 22 14 21 11 15 22 29 34 42 49 40 42 53 38 7 8 13 6 12 19 21 24 27 31 30 36 30
43 46 18 32 43 25 38 31 36 44 8 10 24 5 11 19 23 27 28 25 20 11 8 15 29 41 22 17 25 24 16 12 15 7 12 22 22 23 27 32 34 38 34 41
42 35 42 38 34 30 44 27 20 38 22 13 8 22 16 28 24 25 26 25 13 9 7 20 23 12 10 12 17 28 18 15 10 15 14 21 28 30 34 37 40 44 43 47
29 36 46 27 37 39 5 27 20 19 14 36 24 2 2 15 22 21 17 18 7 3 6 3 5 8 9 19 5 5 11 8 22 11 16 25 29 32 34 38 32 36 45 48
36 50 24 36 36 21 26 7 49 19 32 27 10 15 33 6 14 27 24 13 21 9 6 8 11 10 26 16 9 8 12 15 42 12 22 23 29 29 33 35 38 40 47 50
33 39 33 14 31 26 23 33 25 17 20 29 15 17 10 19 20 23 25 14 13 17 7 5 13 22 23 16 10 10 18 42 20 20 23 23 24 25 31 38 44 49 49 51
23 24 31 9 18 12 6 23 9 18 8 14 18 3 14 17 22 25 30 26 11 6 14 20 19 11 10 7 12 28 14 17 17 20 24 25 30 34 39 43 45 49 51 49
5 11 24 23 52 56 24 20 19 13 18 14 25 6 16 17 24 26 27 27 22 15 17 11 8 7 11 22 13 14 13 16 19 23 29 34 35 37 41 44 46 46 47 44
22 12 18 28 13 23 20 32 16 12 14 20 11 3 10 19 22 24 24 20 15 13 11 9 5 14 9 17 14 14 16 21 26 29 34 35 35 36 39 41 43 44 45 45
12 18 22 26 28 0 14 15 12 7 15 13 3 24 15 20 22 21 17 12 11 6 6 11 7 7 12 8 16 20 22 25 27 31 32 32 34 36 37 45 49 50 46 43
2 26 28 28 13 14 4 8 8 14 8 15 9 13 20 18 18 21 16 13 14 12 8 12 15 15 18 19 20 21 23 26 27 29 30 34 36 34 54 47 50 51 54 47
11 18 20 29 7 16 8 3 9 11 7 18 9 17 10 10 14 17 14 14 7 4 13 14 15 17 19 22 19 20 23 24 26 29 35 38 39 44 43 47 52 53 56 46
13 14 11 24 19 31 12 11 8 6 8 11 13 17 12 14 12 11 11 9 9 12 13 15 18 17 21 20 19 22 22 25 27 33 37 40 44 50 48 51 53 57 46 43
13 16 21 21 18 21 5 5 7 9 7 2 3 5 12 12 13 5 9 13 14 14 16 18 20 21 19 18 18 19 23 26 30 35 41 45 47 53 53 57 51 51 50 44
12 15 15 12 7 16 21 7 4 12 12 9 4 6 12 12 23 13 4 10 13 16 17 17 19 19 18 16 17 18 23 28 34 38 42 45 49 54 53 49 49 49 44 43
24 21 15 10 20 15 13 11 5 9 16 13 2 10 11 16 17 19 10 12 13 17 18 19 20 19 18 18 19 20 25 29 35 40 43 43 47 56 39 42 46 41 42 35
26 7 18 8 11 9 14 6 2 15 6 1 8 9 10 11 14 18 12 12 13 16 18 19 20 19 19 20 20 24 27 31 35 38 40 41 55 37 31 38 37 39 41 35
5 7 2 4 12 3 5 9 8 9 3 8 9 11 10 12 14 12 11 9 12 15 17 18 20 21 21 21 22 25 28 30 33 35 36 42 42 30 31 33 34 41 41 35
5 10 6 5 11 12 4 7 3 5 12 12 10 14 11 17 16 12 11 11 13 16 17 19 20 22 23 22 23 26 28 29 31 32 32 29 33 24 27 28 29 32 36 37
2 5 2 4 10 6 2 0 7 12 17 14 13 12 15 18 15 14 15 15 19 20 22 23 24 25 26 25 27 28 29 29 28 28 28 27 28 22 23 24 24 26 27 29
11 5 6 6 7 7 7 4 11 14 12 14 14 13 14 14 16 18 21 20 24 25 27 26 27 29 30 28 29 28 27 27 25 24 25 26 25 24 24 21 23 21 22 28
10 16 8 9 10 7 9 6 7 10 11 14 17 17 20 21 24 26 29 30 30 32 32 31 29 29 30 29 28 26 25 24 23 23 21 23 23 24 22 23 23 27 26 30
Wind_Direction_500mb
205 238 239 104 240 306 323 311 293 299 156 265 280 273 272 225 205 245 252 248 233 229 219 210 211 209 208 209 209 210 214 212 221 233 251 256 267 278 294 300 313 303 298 296
284 228 264 288 288 296 292 279 318 282 268 270 268 270 279 279 259 227 231 235 237 227 222 211 210 211 210 209 215 221 226 223 222 225 240 256 274 290 289 281 283 295 289 308
242 283 148 290 295 276 249 309 308 311 298 252 265 320 266 306 182 213 216 237 230 232 224 209 211 217 217 215 206 227 220 225 217 213 230 257 275 283 281 268 302 258 316 300
216 238 287 222 263 278 280 282 290 295 286 274 192 286 345 312 34 4 181 213 245 240 229 214 211 214 218 220 223 227 231 218 202 222 229 260 289 296 288 291 282 294 297 278
275 220 257 351 311 288 286 294 296 288 283 350 353 17 236 252 132 189 85 10 266 251 214 217 203 230 207 202 230 256 249 199 252 199 256 285 280 292 296 293 296 296 292 289
257 263 225 248 250 266 288 289 273 267 81 259 212 48 281 18 39 29 14 24 0 336 155 206 218 237 249 209 261 211 222 207 171 196 272 276 263 280 288 285 288 293 289 301
252 283 283 265 259 259 254 30 346 289 245 278 80 271 27 36 38 32 21 4 32 12 138 191 200 213 228 209 224 165 184 158 250 249 248 263 276 280 284 284 280 289 290 295
265 243 239 239 295 270 243 157 216 334 330 269 304 320 103 4 54 38 36 2 29 59 112 179 205 181 188 140 62 92 131 3 302 314 292 298 289 286 288 292 288 284 286 291
282 288 341 300 223 268 283 144 231 296 301 321 16 360 53 341 11 17 20 45 348 232 110 139 131 185 133 116 125 52 45 332 305 318 292 286 287 288 294 295 298 300 293 293
275 297 191 250 312 261 263 337 295 280 289 286 335 17 28 23 9 7 359 49 94 291 104 150 103 96 106 71 54 356 313 319 312 285 291 292 296 301 297 300 303 300 299 297
288 278 295 288 259 303 243 233 117 233 344 327 304 143 54 11 20 7 355 16 43 77 59 93 83 47 50 359 325 314 348 304 305 306 304 306 307 307 305 305 302 301 301 300
316 294 256 254 38 1 332 347 345 320 299 199 259 119 87 28 22 21 7 30 17 20 60 80 88 99 340 312 322 333 338 319 315 314 312 312 311 309 308 307 306 304 302 301
359 252 255 238 37 349 265 257 278 251 247 285 12 125 46 40 25 32 14 33 37 48 71 74 357 299 4 350 341 332 326 323 320 317 316 315 315 316 315 313 310 308 302 299
343 291 289 296 342 39 214 229 306 298 280 330 356 173 60 30 25 19 18 16 48 78 39 340 305 333 358 345 339 328 325 322 320 320 322 323 325 324 319 315 310 307 304 304
120 281 290 287 293 283 292 316 308 299 349 305 24 16 35 23 9 6 359 360 20 345 312 352 0 341 333 340 325 322 321 320 322 326 330 330 327 325 323 319 316 316 304 296
188 266 266 270 299 260 314 90 244 240 45 303 318 101 39 39 348 360 6 352 1 352 347 342 337 332 331 327 318 319 324 328 330 332 332 329 325 324 320 317 317 315 310 298
206 277 253 275 164 228 250 107 270 325 158 324 330 25 357 350 357 349 350 4 344 347 330 328 327 333 324 321 324 325 332 332 333 330 328 327 331 326 323 323 323 319 315 313
209 235 263 268 226 279 88 71 20 319 28 158 165 341 360 338 318 286 339 352 335 328 321 323 321 320 318 312 319 324 330 332 329 328 329 329 331 330 327 329 330 326 326 321
262 253 256 248 296 193 190 140 275 319 192 188 321 333 336 317 297 214 238 311 319 317 316 313 310 313 309 304 310 315 323 326 327 328 329 332 332 328 338 336 332 333 332 330
226 233 253 266 261 315 99 115 328 307 260 122 344 318 331 331 293 93 350 332 313 315 310 300 301 305 302 302 303 309 319 323 327 328 330 330 327 335 335 338 341 338 335 331
220 340 231 223 216 91 78 101 1 259 46 131 312 320 309 300 339 319 316 321 324 319 308 292 295 297 300 303 301 302 312 320 324 326 328 324 333 340 338 341 343 339 344 346
7 183 59 184 263 292 94 198 295 58 205 297 295 294 298 300 291 276 293 305 320 322 317 306 298 297 298 299 301 301 305 311 320 323 328 327 338 334 337 341 342 345 341 344
297 26 356 356 35 117 71 27 66 298 290 295 294 303 288 289 279 274 273 293 307 307 312 315 310 302 298 295 293 295 300 309 315 319 325 329 334 325 335 340 346 344 343 344
229 118 268 297 118 147 133 304 300 290 285 287 284 286 287 285 273 261 269 283 295 301 312 312 307 305 302 299 294 292 297 304 309 312 319 321 325 318 327 335 340 347 345 345
72 231 35 230 154 200 180 311 317 300 277 276 273 280 286 274 272 272 277 285 292 296 298 307 309 304 298 297 295 292 291 298 299 305 314 320 321 318 319 322 320 331 335 337
78 20 340 58 95 320 81 327 301 300 287 277 279 276 265 264 271 276 280 285 289 293 294 293 297 300 298 291 290 290 290 290 288 294 305 317 325 323 318 318 321 319 332 345
Wind_Speed_850mb
33 24 29 16 32 26 18 21 26 20 7 8 26 30 24 14 25 20 27 31 33 37 37 38 38 39 38 38 37 33 29 29 25 21 16 19 23 24 22 25 19 21 26 30
29 26 36 3 17 18 20 35 23 27 15 15 30 36 29 29 19 27 27 29 30 32 35 36 36 39 40 37 30 29 28 29 27 22 18 18 16 21 27 28 24 20 15 27
17 44 8 36 35 29 23 30 26 35 28 24 35 29 42 16 15 14 15 23 26 28 37 40 40 38 39 41 31 40 30 36 29 22 18 19 21 22 20 11 14 10 20 27
36 52 35 23 34 27 33 15 32 33 31 27 23 28 41 36 27 46 24 10 18 26 28 38 41 36 41 36 29 32 42 41 23 21 15 15 22 19 19 28 26 21 30 29
33 37 47 36 29 48 33 34 26 34 36 48 24 9 11 50 16 22 14 21 11 15 22 29 34 42 49 40 42 53 38 7 8 13 6 12 19 21 24 27 31 30 36 30
43 46 18 32 43 25 38 31 36 44 8 10 24 5 11 19 23 27 28 25 20 11 8 15 29 41 22 17 25 24 16 12 15 7 12 22 22 23 27 32 34 38 34 41
42 35 42 38 34 30 44 27 20 38 22 13 8 22 16 28 24 25 26 25 13 9 7 20 23 12 10 12 17 28 18 15 10 15 14 21 28 30 34 37 40 44 43 47
29 36 46 27 37 39 5 27 20 19 14 36 24 2 2 15 22 21 17 18 7 3 6 3 5 8 9 19 5 5 11 8 22 11 16 25 29 32 34 38 32 36 45 48
36 50 24 36 36 21 26 7 49 19 32 27 10 15 33 6 14 27 24 13 21 9 6 8 11 10 26 16 9 8 12 15 42 12 22 23 29 29 33 35 38 40 47 50
33 39 33 14 31 26 23 33 25 17 20 29 15 17 10 19 20 23 25 14 13 17 7 5 13 22 23 16 10 10 18 42 20 20 23 23 24 25 31 38 44 49 49 51
23 24 31 9 18 12 6 23 9 18 8 14 18 3 14 17 22 25 30 26 11 6 14 20 19 11 10 7 12 28 14 17 17 20 24 25 30 34 39 43 45 49 51 49
5 11 24 23 52 56 24 20 19 13 18 14 25 6 16 17 24 26 27 27 22 15 17 11 8 7 11 22 13 14 13 16 19 23 29 34 35 37 41 44 46 46 47 44
22 12 18 28 13 23 20 32 16 12 14 20 11 3 10 19 22 24 24 20 15 13 11 9 5 14 9 17 14 14 16 21 26 29 34 35 35 36 39 41 43 44 45 45
12 18 22 26 28 0 14 15 12 7 15 13 3 24 15 20 22 21 17 12 11 6 6 11 7 7 12 8 16 20 22 25 27 31 32 32 34 36 37 45 49 50 46 43
2 26 28 28 13 14 4 8 8 14 8 15 9 13 20 18 18 21 16 13 14 12 8 12 15 15 18 19 20 21 23 26 27 29 30 34 36 34 54 47 50 51 54 47
11 18 20 29 7 16 8 3 9 11 7 18 9 17 10 10 14 17 14 14 7 4 13 14 15 17 19 22 19 20 23 24 26 29 35 38 39 44 43 47 52 53 56 46
13 14 11 24 19 31 12 11 8 6 8 11 13 17 12 14 12 11 11 9 9 12 13 15 18 17 21 20 19 22 22 25 27 33 37 40 44 50 48 51 53 57 46 43
13 16 21 21 18 21 5 5 7 9 7 2 3 5 12 12 13 5 9 13 14 14 16 18 20 21 19 18 18 19 23 26 30 35 41 45 47 53 53 57 51 51 50 44
12 15 15 12 7 16 21 7 4 12 12 9 4 6 12 12 23 13 4 10 13 16 17 17 19 19 18 16 17 18 23 28 34 38 42 45 49 54 53 49 49 49 44 43
24 21 15 10 20 15 13 11 5 9 16 13 2 10 11 16 17 19 10 12 13 17 18 19 20 19 18 18 19 20 25 29 35 40 43 43 47 56 39 42 46 41 42 35
26 7 18 8 11 9 14 6 2 15 6 1 8 9 10 11 14 18 12 12 13 16 18 19 20 19 19 20 20 24 27 31 35 38 40 41 55 37 31 38 37 39 41 35
5 7 2 4 12 3 5 9 8 9 3 8 9 11 10 12 14 12 11 9 12 15 17 18 20 21 21 21 22 25 28 30 33 35 36 42 42 30 31 33 34 41 41 35
5 10 6 5 11 12 4 7 3 5 12 12 10 14 11 17 16 12 11 11 13 16 17 19 20 22 23 22 23 26 28 29 31 32 32 29 33 24 27 28 29 32 36 37
2 5 2 4 10 6 2 0 7 12 17 14 13 12 15 18 15 14 15 15 19 20 22 23 24 25 26 25 27 28 29 29 28 28 28 27 28 22 23 24 24 26 27 29
11 5 6 6 7 7 7 4 11 14 12 14 14 13 14 14 16 18 21 20 24 25 27 26 27 29 30 28 29 28 27 27 25 24 25 26 25 24 24 21 23 21 22 28
10 16 8 9 10 7 9 6 7 10 11 14 17 17 20 21 24 26 29 30 30 32 32 31 29 29 30 29 28 26 25 24 23 23 21 23 23 24 22 23 23 27 26 30
Wind_Direction_850mb
205 238 239 104 240 306 323 311 293 299 156 265 280 273 272 225 205 245 252 248 233 229 219 210 211 209 208 209 209 210 214 212 221 233 251 256 267 278 294 300 313 303 298 296
284 228 264 288 288 296 292 279 318 282 268 270 268 270 279 279 259 227 231 235 237 227 222 211 210 211 210 209 215 221 226 223 222 225 240 256 274 290 289 281 283 295 289 308
242 283 148 290 295 276 249 309 308 311 298 252 265 320 266 306 182 213 216 237 230 232 224 209 211 217 217 215 206 227 220 225 217 213 230 257 275 283 281 268 302 258 316 300
216 238 287 222 263 278 280 282 290 295 286 274 192 286 345 312 34 4 181 213 245 240 229 214 211 214 218 220 223 227 231 218 202 222 229 260 289 296 288 291 282 294 297 278
275 220 257 351 311 288 286 294 296 288 283 350 353 17 236 252 132 189 85 10 266 251 214 217 203 230 207 202 230 256 249 199 252 199 256 285 280 292 296 293 296 296 292 289
257 263 225 248 250 266 288 289 273 267 81 259 212 48 281 18 39 29 14 24 0 336 155 206 218 237 249 209 261 211 222 207 171 196 272 276 263 280 288 285 288 293 289 301
252 283 283 265 259 259 254 30 346 289 245 278 80 271 27 36 38 32 21 4 32 12 138 191 200 213 228 209 224 165 184 158 250 249 248 263 276 280 284 284 280 289 290 295
265 243 239 239 295 270 243 157 216 334 330 269 304 320 103 4 54 38 36 2 29 59 112 179 205 181 188 140 62 92 131 3 302 314 292 298 289 286 288 292 288 284 286 291
282 288 341 300 223 268 283 144 231 296 301 321 16 360 53 341 11 17 20 45 348 232 110 139 131 185 133 116 125 52 45 332 305 318 292 286 287 288 294 295 298 300 293 293
275 297 191 250 312 261 263 337 295 280 289 286 335 17 28 23 9 7 359 49 94 291 104 150 103 96 106 71 54 356 313 319 312 285 291 292 296 301 297 300 303 300 299 297
288 278 295 288 259 303 243 233 117 233 344 327 304 143 54 11 20 7 355 16 43 77 59 93 83 47 50 359 325 314 348 304 305 306 304 306 307 307 305 305 302 301 301 300
316 294 256 254 38 1 332 347 345 320 299 199 259 119 87 28 22 21 7 30 17 20 60 80 88 99 340 312 322 333 338 319 315 314 312 312 311 309 308 307 306 304 302 301
359 252 255 238 37 349 265 257 278 251 247 285 12 125 46 40 25 32 14 33 37 48 71 74 357 299 4 350 341 332 326 323 320 317 316 315 315 316 315 313 310 308 302 299
343 291 289 296 342 39 214 229 306 298 280 330 356 173 60 30 25 19 18 16 48 78 39 340 305 333 358 345 339 328 325 322 320 320 322 323 325 324 319 315 310 307 304 304
120 281 290 287 293 283 292 316 308 299 349 305 24 16 35 23 9 6 359 360 20 345 312 352 0 341 333 340 325 322 321 320 322 326 330 330 327 325 323 319 316 316 304 296
188 266 266 270 299 260 314 90 244 240 45 303 318 101 39 39 348 360 6 352 1 352 347 342 337 332 331 327 318 319 324 328 330 332 332 329 325 324 320 317 317 315 310 298
206 277 253 275 164 228 250 107 270 325 158 324 330 25 357 350 357 349 350 4 344 347 330 328 327 333 324 321 324 325 332 332 333 330 328 327 331 326 323 323 323 319 315 313
209 235 263 268 226 279 88 71 20 319 28 158 165 341 360 338 318 286 339 352 335 328 321 323 321 320 318 312 319 324 330 332 329 328 329 329 331 330 327 329 330 326 326 321
262 253 256 248 296 193 190 140 275 319 192 188 321 333 336 317 297 214 238 311 319 317 316 313 310 313 309 304 310 315 323 326 327 328 329 332 332 328 338 336 332 333 332 330
226 233 253 266 261 315 99 115 328 307 260 122 344 318 331 331 293 93 350 332 313 315 310 300 301 305 302 302 303 309 319 323 327 328 330 330 327 335 335 338 341 338 335 331
220 340 231 223 216 91 78 101 1 259 46 131 312 320 309 300 339 319 316 321 324 319 308 292 295 297 300 303 301 302 312 320 324 326 328 324 333 340 338 341 343 339 344 346
7 183 59 184 263 292 94 198 295 58 205 297 295 294 298 300 291 276 293 305 320 322 317 306 298 297 298 299 301 301 305 311 320 323 328 327 338 334 337 341 342 345 341 344
297 26 356 356 35 117 71 27 66 298 290 295 294 303 288 289 279 274 273 293 307 307 312 315 310 302 298 295 293 295 300 309 315 319 325 329 334 325 335 340 346 344 343 344
229 118 268 297 118 147 133 304 300 290 285 287 284 286 287 285 273 261 269 283 295 301 312 312 307 305 302 299 294 292 297 304 309 312 319 321 325 318 327 335 340 347 345 345
72 231 35 230 154 200 180 311 317 300 277 276 273 280 286 274 272 272 277 285 292 296 298 307 309 304 298 297 295 292 291 298 299 305 314 320 321 318 319 322 320 331 335 337
78 20 340 58 95 320 81 327 301 300 287 277 279 276 265 264 271 276 280 285 289 293 294 293 297 300 298 291 290 290 290 290 288 294 305 317 325 323 318 318 321 319 332 345